Powrót do katalogu

SL-14 DEB

AktywnyPO
NORAD 45654·DEBRIS·🇷🇺 Russia

Wystrzelony Aug 15, 1991 z Plesetsk Cosmodrome

Loading…

Następne Przeloty (najbliższe 24 godziny)

TLE

ŚwieżeSource: Space-Track

Epoka: Sep 13, 2026, 10:24 UTC

1 45654U 91056CY  26256.43343634  .00000421  00000-0  95777-3 0  9991
2 45654  82.5707  65.4047 0029322 170.5672 189.6011 13.23865526316251

Śledź SL-14 DEB w czasie rzeczywistym z AllMySat

Download on the App Store